This is the latest recevied weather packets stored in our database for station/object DC1MPP-9. If no packets are shown the sender has not sent any weather packets the latest 10 day(s).
| Time | Temp. | Humidity | Pressure | Rain* | Wind** | Luminosity | Snow |
|---|---|---|---|---|---|---|---|
| 1787569364 | 25° C | 40% | 962 hPa | - | - | - | - |
| 1787569123 | 25° C | 40% | 962 hPa | - | - | - | - |
| 1787568882 | 24.44° C | 41% | 962 hPa | - | - | - | - |
| 1787568641 | 24.44° C | 42% | 962 hPa | - | - | - | - |
| 1787568400 | 25° C | 41% | 963 hPa | - | - | - | - |
| 1787568159 | 24.44° C | 45% | 962 hPa | - | - | - | - |
| 1787567918 | 24.44° C | 41% | 962 hPa | - | - | - | - |
| 1787567195 | 24.44° C | 41% | 963 hPa | - | - | - | - |
| 1787566954 | 24.44° C | 42% | 963 hPa | - | - | - | - |
| 1787566713 | 24.44° C | 44% | 963 hPa | - | - | - | - |
| 1787566231 | 23.89° C | 43% | 963 hPa | - | - | - | - |
| 1787565748 | 23.33° C | 51% | 963 hPa | - | - | - | - |
| 1787565507 | 23.33° C | 46% | 963 hPa | - | - | - | - |
| 1787565266 | 23.33° C | 48% | 963 hPa | - | - | - | - |
| 1787565025 | 23.33° C | 46% | 963 hPa | - | - | - | - |
| 1787564784 | 23.33° C | 47% | 963 hPa | - | - | - | - |
| 1787564546 | 23.33° C | 52% | 963 hPa | - | - | - | - |
| 1787564061 | 23.33° C | 50% | 963 hPa | - | - | - | - |
| 1787563820 | 23.33° C | 52% | 963 hPa | - | - | - | - |
| 1787563338 | 23.33° C | 52% | 963 hPa | - | - | - | - |
| 1787563097 | 22.78° C | 51% | 963 hPa | - | - | - | - |
| 1787562856 | 22.22° C | 52% | 963 hPa | - | - | - | - |
| 1787562374 | 22.78° C | 63% | 963 hPa | - | - | - | - |
| 1787562133 | 21.67° C | 58% | 963 hPa | - | - | - | - |
| 1787561892 | 21.67° C | 57% | 963 hPa | - | - | - | - |
* Rain since midnight (hover to see other rain measurements)
** Current wind speed in m/s (hover to see current wind gust speed)